ARG1618 SABE-SAZB

Flight info

Callsign ARG1618
Flight time 0h 51m
Altitude 36000
Route PAL9 GBE UT694 XODIK UW18 MOXAN MOXAN2U
Aircraft B738/M-MSDFGHILRVW/LB1

Departure

Time 2026-05-06 21:27
Airport Aeroparque Jorge Newbery (SABE)

Arrival

Time 2026-05-06 22:19
Airport Comandante Espora Airport (SAZB)
Time Latitude Longitude Altitude Speed Heading
2026-05-06 20:53 -34.55823 -58.41216 24 ft 0 kts 39°
2026-05-06 21:11 -34.55825 -58.41217 24 ft 3 kts 39°
2026-05-06 21:11 -34.55846 -58.41235 24 ft 4 kts 13°
2026-05-06 21:11 -34.55862 -58.41231 24 ft 3 kts 308°
2026-05-06 21:12 -34.55879 -58.41206 29 ft 4 kts 310°
2026-05-06 21:12 -34.55883 -58.41199 24 ft 0 kts 310°
2026-05-06 21:14 -34.55883 -58.41200 24 ft 1 kts 310°
2026-05-06 21:15 -34.55874 -58.41213 26 ft 2 kts 310°
2026-05-06 21:15 -34.55864 -58.41228 24 ft 2 kts 309°
2026-05-06 21:15 -34.55854 -58.41251 27 ft 4 kts 287°
2026-05-06 21:15 -34.55865 -58.41281 28 ft 4 kts 216°
2026-05-06 21:16 -34.55894 -58.41294 28 ft 5 kts 214°
2026-05-06 21:16 -34.55909 -58.41326 24 ft 5 kts 266°
2026-05-06 21:16 -34.55899 -58.41364 24 ft 5 kts 292°
2026-05-06 21:16 -34.55885 -58.41400 24 ft 5 kts 296°
2026-05-06 21:17 -34.55870 -58.41433 26 ft 5 kts 299°
2026-05-06 21:17 -34.55855 -58.41467 24 ft 4 kts 298°
2026-05-06 21:17 -34.55841 -58.41500 28 ft 4 kts 298°
2026-05-06 21:17 -34.55827 -58.41532 24 ft 4 kts 298°
2026-05-06 21:18 -34.55814 -58.41565 28 ft 4 kts 296°
2026-05-06 21:18 -34.55801 -58.41597 24 ft 4 kts 296°
2026-05-06 21:18 -34.55788 -58.41628 26 ft 4 kts 296°
2026-05-06 21:18 -34.55775 -58.41659 27 ft 4 kts 296°
2026-05-06 21:19 -34.55763 -58.41689 28 ft 4 kts 296°
2026-05-06 21:19 -34.55751 -58.41719 24 ft 4 kts 296°
2026-05-06 21:19 -34.55739 -58.41747 27 ft 4 kts 296°
2026-05-06 21:19 -34.55727 -58.41775 24 ft 4 kts 299°
2026-05-06 21:20 -34.55713 -58.41802 27 ft 4 kts 304°
2026-05-06 21:20 -34.55698 -58.41828 24 ft 4 kts 306°
2026-05-06 21:20 -34.55682 -58.41854 24 ft 4 kts 306°
2026-05-06 21:20 -34.55666 -58.41881 28 ft 4 kts 303°
2026-05-06 21:21 -34.55646 -58.41919 28 ft 6 kts 303°
2026-05-06 21:21 -34.55624 -58.41958 24 ft 6 kts 304°
2026-05-06 21:21 -34.55602 -58.41998 27 ft 7 kts 304°
2026-05-06 21:21 -34.55572 -58.42051 24 ft 8 kts 304°
2026-05-06 21:22 -34.55541 -58.42103 25 ft 7 kts 307°
2026-05-06 21:22 -34.55510 -58.42152 29 ft 7 kts 307°
2026-05-06 21:22 -34.55479 -58.42200 25 ft 7 kts 308°
2026-05-06 21:22 -34.55450 -58.42246 24 ft 7 kts 308°
2026-05-06 21:23 -34.55421 -58.42291 27 ft 7 kts 305°
2026-05-06 21:23 -34.55394 -58.42337 24 ft 7 kts 307°
2026-05-06 21:23 -34.55380 -58.42359 24 ft 0 kts 304°
2026-05-06 21:25 -34.55371 -58.42390 27 ft 5 kts 286°
2026-05-06 21:25 -34.55363 -58.42431 26 ft 5 kts 279°
2026-05-06 21:26 -34.55363 -58.42472 28 ft 5 kts 259°
2026-05-06 21:26 -34.55383 -58.42503 27 ft 5 kts 214°
2026-05-06 21:26 -34.55412 -58.42494 26 ft 5 kts 133°
2026-05-06 21:26 -34.55416 -58.42488 25 ft 0 kts 124°
2026-05-06 21:27 -34.55507 -58.42323 27 ft 60 kts 124°
2026-05-06 21:27 -34.55883 -58.41652 24 ft 130 kts 124°
2026-05-06 21:27 -34.56474 -58.40590 234 ft 164 kts 124°
2026-05-06 21:27 -34.57104 -58.39427 994 ft 171 kts 117°
2026-05-06 21:28 -34.57592 -58.37967 1158 ft 201 kts 84°
2026-05-06 21:28 -34.57168 -58.36350 1370 ft 213 kts 53°
2026-05-06 21:28 -34.56358 -58.34745 1698 ft 232 kts 52°
2026-05-06 21:28 -34.55505 -58.32972 2048 ft 250 kts 53°
2026-05-06 21:29 -34.54634 -58.31077 2636 ft 264 kts 54°
2026-05-06 21:29 -34.53680 -58.29136 3284 ft 266 kts 40°
2026-05-06 21:29 -34.52189 -58.28027 4143 ft 248 kts
2026-05-06 21:29 -34.50543 -58.28228 4975 ft 238 kts 332°
2026-05-06 21:30 -34.49373 -58.29598 5810 ft 241 kts 298°
2026-05-06 21:30 -34.49000 -58.31603 6639 ft 250 kts 277°
2026-05-06 21:30 -34.49433 -58.33698 7313 ft 274 kts 249°
2026-05-06 21:30 -34.50692 -58.35528 8176 ft 291 kts 226°
2026-05-06 21:31 -34.52507 -58.36764 8925 ft 310 kts 206°
2026-05-06 21:31 -34.54655 -58.37253 9665 ft 323 kts 192°
2026-05-06 21:31 -34.56928 -58.37466 10242 ft 335 kts 189°
2026-05-06 21:31 -34.59296 -58.37625 10767 ft 345 kts 189°
2026-05-06 21:32 -34.61707 -58.37772 11500 ft 348 kts 189°
2026-05-06 21:32 -34.66529 -58.38082 13115 ft 347 kts 190°
2026-05-06 21:32 -34.68939 -58.38256 13821 ft 349 kts 190°
2026-05-06 21:33 -34.71394 -58.38404 14430 ft 356 kts 185°
2026-05-06 21:33 -34.73912 -58.37844 14849 ft 378 kts 165°
2026-05-06 21:33 -34.76375 -58.36659 15475 ft 382 kts 161°
2026-05-06 21:33 -34.78832 -58.35365 16075 ft 387 kts 160°
2026-05-06 21:34 -34.81282 -58.34054 16670 ft 391 kts 160°
2026-05-06 21:34 -34.83793 -58.32706 17277 ft 396 kts 160°
2026-05-06 21:34 -34.86329 -58.31342 17878 ft 400 kts 160°
2026-05-06 21:34 -34.88888 -58.29965 18411 ft 404 kts 160°
2026-05-06 21:35 -34.91471 -58.28574 18993 ft 407 kts 160°
2026-05-06 21:35 -34.94068 -58.27170 19576 ft 409 kts 160°
2026-05-06 21:35 -34.96667 -58.25761 20118 ft 411 kts 160°
2026-05-06 21:35 -34.99302 -58.24333 20663 ft 415 kts 160°
2026-05-06 21:36 -35.02008 -58.23149 21155 ft 412 kts 174°
2026-05-06 21:36 -35.04830 -58.22953 21684 ft 400 kts 194°
2026-05-06 21:36 -35.07510 -58.23657 22228 ft 391 kts 205°
2026-05-06 21:36 -35.10133 -58.24609 22739 ft 396 kts 204°
2026-05-06 21:37 -35.12797 -58.25543 23246 ft 400 kts 203°
2026-05-06 21:37 -35.15453 -58.26452 23670 ft 403 kts 203°
2026-05-06 21:37 -35.18161 -58.27366 24148 ft 404 kts 203°
2026-05-06 21:37 -35.19993 -58.27979 24462 ft 404 kts 203°
2026-05-06 21:38 -35.23603 -58.29186 24932 ft 409 kts 202°
2026-05-06 21:38 -35.25469 -58.29811 25210 ft 411 kts 202°
2026-05-06 21:38 -35.28193 -58.30721 25656 ft 412 kts 202°
2026-05-06 21:38 -35.30967 -58.31648 26095 ft 413 kts 202°
2026-05-06 21:39 -35.33747 -58.32577 26505 ft 416 kts 202°
2026-05-06 21:39 -35.36546 -58.33515 26898 ft 419 kts 202°
2026-05-06 21:39 -35.39370 -58.34463 27230 ft 423 kts 202°
2026-05-06 21:39 -35.42213 -58.35417 27607 ft 425 kts 202°
2026-05-06 21:40 -35.45073 -58.36377 28009 ft 427 kts 202°
2026-05-06 21:40 -35.47942 -58.37341 28390 ft 429 kts 202°
2026-05-06 21:40 -35.50827 -58.38310 28733 ft 431 kts 202°
2026-05-06 21:40 -35.53649 -58.39494 29075 ft 425 kts 213°
2026-05-06 21:41 -35.56228 -58.41206 29455 ft 420 kts 218°
2026-05-06 21:41 -35.58755 -58.43023 29786 ft 422 kts 218°
2026-05-06 21:41 -35.61285 -58.44865 30083 ft 424 kts 218°
2026-05-06 21:41 -35.63834 -58.46715 30392 ft 425 kts 218°
2026-05-06 21:42 -35.66389 -58.48559 30745 ft 426 kts 219°
2026-05-06 21:42 -35.68920 -58.50373 31129 ft 425 kts 219°
2026-05-06 21:42 -35.71478 -58.52196 31480 ft 424 kts 219°
2026-05-06 21:42 -35.74038 -58.54017 31778 ft 424 kts 219°
2026-05-06 21:43 -35.76602 -58.55839 32035 ft 427 kts 219°
2026-05-06 21:43 -35.79176 -58.57669 32337 ft 427 kts 219°
2026-05-06 21:43 -35.81754 -58.59501 32649 ft 427 kts 219°
2026-05-06 21:43 -35.84329 -58.61332 32928 ft 428 kts 219°
2026-05-06 21:44 -35.86913 -58.63172 33215 ft 428 kts 219°
2026-05-06 21:44 -35.89501 -58.65018 33371 ft 432 kts 219°
2026-05-06 21:44 -35.92105 -58.66877 33552 ft 434 kts 219°
2026-05-06 21:44 -35.94720 -58.68742 33783 ft 434 kts 219°
2026-05-06 21:45 -35.97339 -58.70610 33991 ft 434 kts 219°
2026-05-06 21:45 -35.99923 -58.72458 34177 ft 436 kts 219°
2026-05-06 21:45 -36.02545 -58.74336 34359 ft 437 kts 219°
2026-05-06 21:45 -36.05184 -58.76229 34506 ft 438 kts 219°
2026-05-06 21:46 -36.07826 -58.78125 34687 ft 439 kts 219°
2026-05-06 21:46 -36.10468 -58.80021 34948 ft 438 kts 219°
2026-05-06 21:46 -36.13101 -58.81908 35122 ft 439 kts 219°
2026-05-06 21:46 -36.15748 -58.83809 35271 ft 440 kts 219°
2026-05-06 21:47 -36.18402 -58.85721 35413 ft 443 kts 219°
2026-05-06 21:47 -36.21034 -58.87637 35832 ft 437 kts 219°
2026-05-06 21:47 -36.25564 -58.90834 36175 ft 438 kts 218°
2026-05-06 21:47 -36.28200 -58.92728 36303 ft 439 kts 219°
2026-05-06 21:48 -36.30839 -58.94646 36474 ft 438 kts 219°
2026-05-06 21:48 -36.33467 -58.96558 36689 ft 437 kts 219°
2026-05-06 21:48 -36.36084 -58.98457 36911 ft 436 kts 219°
2026-05-06 21:48 -36.38719 -59.00367 37080 ft 437 kts 219°
2026-05-06 21:49 -36.41305 -59.02255 37295 ft 437 kts 219°
2026-05-06 21:49 -36.43914 -59.04160 37647 ft 431 kts 219°
2026-05-06 21:49 -36.49905 -59.08457 37660 ft 425 kts 219°
2026-05-06 21:50 -36.70615 -59.23527 37709 ft 440 kts 219°
2026-05-06 21:50 -36.81206 -59.31513 37678 ft 452 kts 217°
2026-05-06 21:50 -36.92205 -59.39293 37647 ft 457 kts 219°
2026-05-06 21:51 -37.14371 -59.55526 37679 ft 460 kts 219°
2026-05-06 21:51 -37.23533 -59.63115 37693 ft 458 kts 219°
2026-05-06 21:52 -37.32235 -59.70994 37383 ft 448 kts 232°
2026-05-06 21:52 -37.39774 -59.80788 35162 ft 451 kts 233°
2026-05-06 21:52 -37.48405 -59.91972 33298 ft 443 kts 232°
2026-05-06 21:53 -37.57060 -60.02955 31274 ft 438 kts 233°
2026-05-06 21:53 -37.65469 -60.13810 29518 ft 427 kts 234°
2026-05-06 21:53 -37.73690 -60.24349 27718 ft 415 kts 234°
2026-05-06 21:53 -37.81600 -60.34580 26079 ft 399 kts 234°
2026-05-06 21:54 -37.89213 -60.44483 24555 ft 386 kts 234°
2026-05-06 21:54 -37.96636 -60.54084 23030 ft 377 kts 234°
2026-05-06 21:54 -38.03870 -60.63558 21347 ft 368 kts 234°
2026-05-06 21:54 -38.10888 -60.72740 19851 ft 357 kts 233°
2026-05-06 21:55 -38.15109 -60.78306 19032 ft 348 kts 237°
2026-05-06 21:55 -38.16379 -60.80860 18801 ft 336 kts 250°
2026-05-06 21:55 -38.18224 -60.87004 18274 ft 325 kts 256°
2026-05-06 21:55 -38.21282 -60.97756 16770 ft 323 kts 255°
2026-05-06 21:56 -38.24348 -61.08520 15180 ft 322 kts 252°
2026-05-06 21:56 -38.27381 -61.19107 13887 ft 313 kts 251°
2026-05-06 21:56 -38.30317 -61.29410 12518 ft 304 kts 251°
2026-05-06 21:56 -38.33126 -61.39283 11118 ft 300 kts 249°
2026-05-06 21:57 -38.35880 -61.49035 9953 ft 288 kts 249°
2026-05-06 21:57 -38.36554 -61.51424 9763 ft 282 kts 249°
2026-05-06 21:57 -38.37270 -61.53965 9662 ft 271 kts 249°
2026-05-06 21:57 -38.39673 -61.62466 8481 ft 268 kts 246°
2026-05-06 21:58 -38.40779 -61.65026 8081 ft 267 kts 245°
2026-05-06 21:58 -38.41190 -61.67318 7778 ft 268 kts 269°
2026-05-06 21:58 -38.40619 -61.73800 7029 ft 264 kts 276°
2026-05-06 21:58 -38.39625 -61.82971 6002 ft 256 kts 276°
2026-05-06 21:59 -38.38663 -61.91732 5117 ft 243 kts 276°
2026-05-06 21:59 -38.38119 -61.96665 4597 ft 247 kts 276°
2026-05-06 21:59 -38.37800 -61.99566 4336 ft 243 kts 276°
2026-05-06 21:59 -38.37579 -62.01621 4239 ft 226 kts 276°
2026-05-06 22:00 -38.37367 -62.03557 4034 ft 217 kts 276°
2026-05-06 22:00 -38.37167 -62.05409 3775 ft 210 kts 277°
2026-05-06 22:00 -38.36938 -62.07619 3474 ft 198 kts 277°
2026-05-06 22:00 -38.36762 -62.09349 3244 ft 196 kts 277°
2026-05-06 22:01 -38.36881 -62.11037 2960 ft 193 kts 243°
2026-05-06 22:01 -38.37888 -62.12082 2757 ft 188 kts 192°
2026-05-06 22:01 -38.39184 -62.12207 2798 ft 192 kts 189°
2026-05-06 22:01 -38.40470 -62.12506 2797 ft 183 kts 196°
2026-05-06 22:02 -38.41684 -62.12930 2787 ft 178 kts 200°
2026-05-06 22:02 -38.42908 -62.13458 2556 ft 191 kts 201°
2026-05-06 22:02 -38.44121 -62.14046 2491 ft 182 kts 207°
2026-05-06 22:02 -38.45272 -62.14735 2494 ft 183 kts 207°
2026-05-06 22:03 -38.46396 -62.15400 2483 ft 175 kts 208°
2026-05-06 22:03 -38.47466 -62.16070 2487 ft 172 kts 209°
2026-05-06 22:03 -38.48548 -62.16756 2487 ft 175 kts 208°
2026-05-06 22:03 -38.49619 -62.17466 2505 ft 170 kts 209°
2026-05-06 22:04 -38.50651 -62.18145 2503 ft 163 kts 212°
2026-05-06 22:04 -38.51636 -62.18841 2507 ft 163 kts 212°
2026-05-06 22:04 -38.52625 -62.19543 2509 ft 164 kts 212°
2026-05-06 22:04 -38.53633 -62.20256 2508 ft 166 kts 213°
2026-05-06 22:05 -38.54657 -62.20983 2344 ft 170 kts 213°
2026-05-06 22:05 -38.55756 -62.21538 2202 ft 174 kts 181°
2026-05-06 22:05 -38.56894 -62.21197 2218 ft 171 kts 165°
2026-05-06 22:05 -38.58040 -62.20800 2200 ft 169 kts 165°
2026-05-06 22:06 -38.59168 -62.20392 2190 ft 168 kts 164°
2026-05-06 22:06 -38.60292 -62.19977 2192 ft 169 kts 164°
2026-05-06 22:06 -38.61410 -62.19567 2153 ft 168 kts 163°
2026-05-06 22:06 -38.62539 -62.19132 2067 ft 171 kts 163°
2026-05-06 22:07 -38.63701 -62.18723 1936 ft 177 kts 163°
2026-05-06 22:07 -38.64907 -62.18261 1638 ft 180 kts 161°
2026-05-06 22:07 -38.66115 -62.17804 1378 ft 181 kts 161°
2026-05-06 22:07 -38.67315 -62.17359 1207 ft 176 kts 160°
2026-05-06 22:08 -38.68463 -62.16931 979 ft 166 kts 159°
2026-05-06 22:08 -38.69546 -62.16533 696 ft 158 kts 158°
2026-05-06 22:08 -38.70568 -62.16149 496 ft 150 kts 156°
2026-05-06 22:08 -38.71572 -62.15772 329 ft 151 kts 156°
2026-05-06 22:09 -38.72539 -62.15415 288 ft 151 kts 155°
2026-05-06 22:09 -38.73677 -62.14950 673 ft 190 kts 157°
2026-05-06 22:09 -38.74992 -62.14423 1250 ft 198 kts 160°
2026-05-06 22:09 -38.76274 -62.13937 1764 ft 190 kts 162°
2026-05-06 22:10 -38.77573 -62.13501 1979 ft 196 kts 165°
2026-05-06 22:10 -38.78924 -62.13145 2277 ft 198 kts 163°
2026-05-06 22:10 -38.80012 -62.12188 2676 ft 188 kts 122°
2026-05-06 22:10 -38.80431 -62.10567 2694 ft 201 kts 85°
2026-05-06 22:11 -38.79984 -62.08870 2756 ft 208 kts 50°
2026-05-06 22:11 -38.78860 -62.07825 2743 ft 194 kts 16°
2026-05-06 22:11 -38.77607 -62.07390 2737 ft 181 kts 11°
2026-05-06 22:11 -38.77197 -62.07267 2732 ft 179 kts 11°
2026-05-06 22:12 -38.76805 -62.07151 2736 ft 176 kts 11°
2026-05-06 22:12 -38.70772 -62.05341 3057 ft 187 kts 10°
2026-05-06 22:12 -38.68412 -62.04637 2994 ft 181 kts
2026-05-06 22:13 -38.65825 -62.03964 2978 ft 170 kts 356°
2026-05-06 22:13 -38.64594 -62.03973 2846 ft 180 kts 358°
2026-05-06 22:13 -38.63377 -62.04016 2637 ft 179 kts 339°
2026-05-06 22:13 -38.62525 -62.05039 2396 ft 170 kts 290°
2026-05-06 22:14 -38.62403 -62.06523 2253 ft 169 kts 274°
2026-05-06 22:14 -38.62383 -62.08051 2225 ft 172 kts 277°
2026-05-06 22:14 -38.62308 -62.09561 2204 ft 167 kts 279°
2026-05-06 22:14 -38.62166 -62.11014 2205 ft 164 kts 281°
2026-05-06 22:15 -38.61982 -62.12473 2192 ft 164 kts 283°
2026-05-06 22:15 -38.61468 -62.13730 2212 ft 162 kts 316°
2026-05-06 22:15 -38.60648 -62.14775 2199 ft 168 kts 316°
2026-05-06 22:15 -38.60101 -62.16017 2164 ft 164 kts 273°
2026-05-06 22:16 -38.60360 -62.17467 2219 ft 169 kts 257°
2026-05-06 22:16 -38.60924 -62.18731 2182 ft 167 kts 219°
2026-05-06 22:16 -38.62027 -62.19238 2185 ft 171 kts 182°
2026-05-06 22:16 -38.63161 -62.18930 2208 ft 171 kts 163°
2026-05-06 22:17 -38.64321 -62.18478 2145 ft 176 kts 163°
2026-05-06 22:17 -38.65527 -62.18022 1691 ft 182 kts 164°
2026-05-06 22:17 -38.66736 -62.17630 1424 ft 177 kts 162°
2026-05-06 22:17 -38.67877 -62.17138 1207 ft 169 kts 158°
2026-05-06 22:18 -38.68996 -62.16754 948 ft 165 kts 161°
2026-05-06 22:18 -38.70073 -62.16345 620 ft 158 kts 156°
2026-05-06 22:18 -38.71111 -62.15944 395 ft 153 kts 156°
2026-05-06 22:18 -38.72113 -62.15570 258 ft 144 kts 155°
2026-05-06 22:19 -38.72940 -62.15243 253 ft 103 kts 166°
2026-05-06 22:19 -38.73440 -62.15066 258 ft 47 kts 164°
2026-05-06 22:19 -38.73697 -62.14999 257 ft 32 kts 189°
2026-05-06 22:19 -38.73767 -62.15096 256 ft 16 kts 271°
2026-05-06 22:20 -38.73720 -62.15226 256 ft 17 kts 338°
2026-05-06 22:20 -38.73611 -62.15266 256 ft 16 kts 346°
2026-05-06 22:20 -38.73504 -62.15306 256 ft 16 kts 345°
2026-05-06 22:20 -38.73401 -62.15344 256 ft 15 kts 344°
2026-05-06 22:21 -38.73303 -62.15380 256 ft 14 kts 343°
2026-05-06 22:21 -38.73208 -62.15414 255 ft 14 kts 344°
2026-05-06 22:21 -38.73118 -62.15447 255 ft 13 kts 342°
2026-05-06 22:21 -38.73032 -62.15479 255 ft 13 kts 345°
2026-05-06 22:22 -38.72991 -62.15567 256 ft 13 kts 272°
2026-05-06 22:22 -38.72993 -62.15677 256 ft 12 kts 267°
2026-05-06 22:22 -38.72996 -62.15784 256 ft 12 kts 269°
2026-05-06 22:22 -38.72990 -62.15840 256 ft 3 kts 287°
2026-05-06 22:23 -38.72970 -62.15854 256 ft 4 kts 359°
2026-05-06 22:23 -38.72934 -62.15849 256 ft 6 kts
2026-05-06 22:23 -38.72892 -62.15844 256 ft 7 kts
2026-05-06 22:23 -38.72838 -62.15838 256 ft 8 kts
2026-05-06 22:24 -38.72784 -62.15832 256 ft 8 kts
2026-05-06 22:24 -38.72732 -62.15826 256 ft 7 kts
2026-05-06 22:24 -38.72682 -62.15819 256 ft 7 kts
2026-05-06 22:24 -38.72633 -62.15814 256 ft 7 kts
2026-05-06 22:25 -38.72585 -62.15807 256 ft 7 kts
2026-05-06 22:25 -38.72538 -62.15801 256 ft 7 kts
2026-05-06 22:25 -38.72491 -62.15799 256 ft 7 kts
2026-05-06 22:25 -38.72445 -62.15795 256 ft 7 kts
2026-05-06 22:26 -38.72400 -62.15791 255 ft 6 kts
2026-05-06 22:26 -38.72354 -62.15800 255 ft 7 kts 346°
2026-05-06 22:26 -38.72306 -62.15820 255 ft 8 kts 342°
2026-05-06 22:26 -38.72256 -62.15841 255 ft 7 kts 343°
2026-05-06 22:27 -38.72208 -62.15859 255 ft 7 kts 344°
2026-05-06 22:27 -38.72160 -62.15875 255 ft 7 kts 345°
2026-05-06 22:27 -38.72115 -62.15890 255 ft 7 kts 346°
2026-05-06 22:27 -38.72069 -62.15906 255 ft 7 kts 344°
2026-05-06 22:28 -38.72021 -62.15925 255 ft 13 kts 343°
2026-05-06 22:28 -38.71913 -62.15965 255 ft 16 kts 345°
2026-05-06 22:28 -38.71806 -62.16007 256 ft 16 kts 343°
2026-05-06 22:28 -38.71702 -62.16042 256 ft 15 kts 346°
2026-05-06 22:29 -38.71655 -62.16069 256 ft 7 kts 303°
2026-05-06 22:29 -38.71648 -62.16133 256 ft 7 kts 272°
2026-05-06 22:29 -38.71644 -62.16195 256 ft 7 kts 276°
2026-05-06 22:29 -38.71640 -62.16256 256 ft 7 kts 263°
2026-05-06 22:30 -38.71643 -62.16304 256 ft 0 kts 278°